Regional Weather Roundup
Issued by NWS Upton, NY

Current Version | Previous Version | Graphics & Text | Print | Product List | Glossary Off
Versions: 1 2 3 4 5 6 7 8 9 10 11 12 13 14 15 16 17 18 19 20 21 22 23 24 25 26 27 28 29 30 31 32 33 34 35 36 37 38 39 40 41 42 43 44 45 46 47 48 49 50

737
ASUS41 KOKX 240804
RWROKX

REGIONAL WEATHER ROUNDUP
NATIONAL WEATHER SERVICE NEW YORK NY
400 AM EDT TUE MAY 24 2016

NOTE: "FAIR" INDICATES FEW OR NO CLOUDS BELOW 12,000 FEET WITH NO
SIGNIFICANT WEATHER AND/OR OBSTRUCTIONS TO VISIBILITY.

NYZ071-072-176-178-NJZ106-104-240900-
NEW YORK CITY METRO AREA


CITY           SKY/WX    TMP DP  RH WIND       PRES   REMARKS
CENTRAL PARK   LGT RAIN  59  54  83 W7        29.90F
LAGUARDIA APRT LGT RAIN  61  59  93 NW8       29.86F
KENNEDY INTL   LGT RAIN  60  57  89 W6        29.87F
NEWARK/LIBERTY LGT RAIN  59  55  87 W6        29.88S
BRNX BOT. GARD   N/A     57  54  88 W2        29.87F
TETERBORO      LGT RAIN  59  54  83 CALM      29.87F
$$

NYZ177-179-078>081-240900-
LONG ISLAND NEW YORK

CITY           SKY/WX    TMP DP  RH WIND       PRES   REMARKS
FARMINGDALE    CLOUDY    57  54  89 W10       29.84F
ISLIP          CLOUDY    56  53  90 CALM      29.84F
SHIRLEY        CLOUDY    57  54  89 N6        29.86S
RIVERHEAD        N/A     57  54  88 CALM      29.85S
WESTHAMPTON    CLOUDY    52  52 100 N8        29.87S
EAST HAMPTON   HVY RAIN  55  54  95 N12       29.84F
MONTAUK POINT    N/A     55  54  96 N5        29.85S
$$

NYZ052-065-067-240900-
HUDSON VALLEY

CITY           SKY/WX    TMP DP  RH WIND       PRES   REMARKS
WHITE PLAINS   LGT RAIN  57  53  86 NW14      29.85F
NEWBURGH       LGT RAIN  57  55  94 E7        29.91S
MONTGOMERY     LGT RAIN  58  54  86 CALM      29.90S
POUGHKEEPSIE   LGT RAIN  58  54  86 SW7       29.87F
ALBANY         LGT RAIN  62  51  67 S7        29.90S
$$

NJZ001-105-106-008-010-013-015-019>022-104-240900-
NEW JERSEY

CITY           SKY/WX    TMP DP  RH WIND       PRES   REMARKS
NEWARK/LIBERTY LGT RAIN  59  55  87 W6        29.88S
TETERBORO      LGT RAIN  59  54  83 CALM      29.87F
CALDWELL       LGT RAIN  57  55  93 CALM      29.89S
MORRISTOWN     LGT RAIN  57  54  88 CALM      29.89S
SOMERVILLE     MOCLDY    56  54  93 NW5       29.87F FOG
SUSSEX         CLOUDY    59  54  83 CALM      29.90R
ANDOVER          N/A     58  55  90 CALM      29.89S
TRENTON        CLOUDY    57  54  89 E3        29.89R
MILLVILLE      LGT RAIN  56  54  93 SW10      29.86F FOG
ATLANTIC CITY  LGT RAIN  57  55  93 SW5       29.88F
WRIGHTSTOWN    NOT AVBL
TOMS RIVER     CLOUDY    55  52  88 W8        29.89S
BELMAR         LGT RAIN  55  54  96 W5        29.89S
$$

PAZ047>061-062-071-240900-
EASTERN PENNSYLVANIA

CITY           SKY/WX    TMP DP  RH WIND       PRES   REMARKS
PHILADELPHIA   CLOUDY    58  54  86 SW9       29.88F
ALLENTOWN      CLOUDY    57  53  86 SW5       29.87F
SCRANTON       CLOUDY    57  46  66 CALM      29.91R
$$

CTZ002-004>006-009-010-012-RIZ004-006-007-MAZ004-011-015-240900-
SOUTHERN NEW ENGLAND
 IN CT

CITY           SKY/WX    TMP DP  RH WIND       PRES   REMARKS
BRADLEY INTL   LGT RAIN  58  55  90 NE7       29.86F
HARTFORD       CLOUDY    61  55  81 N6        29.86F
DANBURY        LGT RAIN  56  52  86 SW3       29.87F
WTRBRY/OXFORD    N/A     55  50  82 N7        29.88S
BRIDGEPORT     CLOUDY    59  53  80 NW5       29.84F
MERIDEN        LGT RAIN  58  53  84 CALM      29.86S
NEW HAVEN      LGT RAIN  56  53  90 N10       29.83F
CHESTER        LGT RAIN  55  55 100 N7        29.85F
GROTON         LGT RAIN  56  56 100 N7        29.83F FOG
WILLIMANTIC    CLOUDY    59  54  83 N6        29.85F

 IN RI

CITY           SKY/WX    TMP DP  RH WIND       PRES   REMARKS
PROVIDENCE     LGT RAIN  57  54  89 NE14      29.87S
BLOCK ISLAND   CLOUDY    55  54  96 NE9       29.84S
WESTERLY       LGT RAIN  58  54  86 N5        29.84F

 IN MA

CITY           SKY/WX    TMP DP  RH WIND       PRES   REMARKS
BOSTON         CLOUDY    56  52  86 E14       29.90R
WORCESTER      NOT AVBL
WESTFIELD      CLOUDY    58  55  90 NE7       29.87F
PROVINCETOWN   LGT RAIN  50  49  96 E12       29.90S
NANTUCKET      CLOUDY    52  50  93 NE17      29.83F FOG
$$

ANZ330-335-338-340-345-350-353-355-240900-
COASTAL MARINE OBSERVATIONS


STATION/POSITION TIME  SKY/WX   TEMP    WIND        PRES    VSBY  WAVE
                                AIR SEA DIR/SP/G                  HT/PER
                 (UTC)          (F)     (DEG/KT/KT) (MB)    (MI)  (FT/S)
NY HARB ENTRANCE 0650            58 57  290/ 12/ 16 1010.9          3/ 9
20S FIRE ISLAND  0650            56 54  320/ 16/ 17 1010.4          4/ 9
GREAT SOUTH BAY  0700            57 63  300/ 12/ 14   N/A
23 SSW MONTAUK P 0750            55 54  340/ 14/ 17 1009.5          3/ 9
15 E BARNEGAT LI 0722               54                N/A           4/ 9
HUDSON CANYON    0650            54 52              1011.1          4/ 8
KINGS POINT      0700            57 56              1011.4
EXECUTION ROCKS  NOT AVBL
CENTRAL LI SOUND 0700            57     340/ 12/ 16   N/A           1/ 2
EASTERN LI SOUND 0700            54 51  310/ 10/ 12   N/A
ROBBINS REEF     0706            60     280/  6/  6 1011.0
$$


>>>>>>>>>>>>>>>>>>>>>>>>>>>> KEY <<<<<<<<<<<<<<<<<<<<<<<<<<<
>                                                          <
>     SKY/WX - SKY CONDITION/PRESENT WEATHER               <
>     TMP    - TEMPERATURE IN FAHRENHEIT                   <
>     DP     - DEWPOINT IN FAHRENHEIT                      <
>     RH     - RELATIVE HUMIDITY IN PERCENT                <
>     WIND   - DIRECTION AND SPEED IN MPH                  <
>     PRES   - MEAN SEA LEVEL PRESSURE IN INCHES OF HG     <
>     WCI    - WIND CHILL INDEX                            <
>     VSB    - VISIBILITY IN MILES                         <
>     HX     - HEAT INDEX                                  <
>     TC     - TEMPERATURE IN CELSIUS                      <
>     VRB    - VARIABLE WIND DIRECTION                     <
>                                                          <
>>>>>>>>>>>>>>>>>>>>>>>>>>>> KEY <<<<<<<<<<<<<<<<<<<<<<<<<<<






USA.gov is the U.S. government's official web portal to all federal, state and local government web resources and services.